Year,Month,Day,Hour,Minute,Value (Times are PST for windspeed in km/hr)
2010,05,03,00,00,3.50
2010,05,03,00,01,3.80
2010,05,03,00,02,3.90
2010,05,03,00,03,7.20
2010,05,03,00,04,4.00
2010,05,03,00,05,3.00
2010,05,03,00,06,3.40
2010,05,03,00,07,3.50
2010,05,03,00,08,4.70
2010,05,03,00,09,4.80
2010,05,03,00,10,8.20
2010,05,03,00,11,3.30
2010,05,03,00,12,3.90
2010,05,03,00,13,5.00
2010,05,03,00,14,2.50
2010,05,03,00,15,12.50
2010,05,03,00,16,10.30
2010,05,03,00,17,6.90
2010,05,03,00,18,6.90
2010,05,03,00,19,7.20
2010,05,03,00,20,9.50
2010,05,03,00,21,6.10
2010,05,03,00,22,10.10
2010,05,03,00,23,15.60
2010,05,03,00,24,6.40
2010,05,03,00,25,4.50
2010,05,03,00,26,7.40
2010,05,03,00,27,11.40
2010,05,03,00,28,8.40
2010,05,03,00,29,4.00
2010,05,03,00,30,5.80
2010,05,03,00,31,3.90
2010,05,03,00,32,7.20
2010,05,03,00,33,4.10
2010,05,03,00,34,10.90
2010,05,03,00,35,11.90
2010,05,03,00,36,10.50
2010,05,03,00,37,13.40
2010,05,03,00,38,4.00
2010,05,03,00,39,13.40
2010,05,03,00,40,7.40
2010,05,03,00,41,5.60
2010,05,03,00,42,10.30
2010,05,03,00,43,10.00
2010,05,03,00,44,10.80
2010,05,03,00,45,14.70
2010,05,03,00,46,6.90
2010,05,03,00,47,7.20
2010,05,03,00,48,7.50
2010,05,03,00,49,5.50
2010,05,03,00,50,9.50
2010,05,03,00,51,7.80
2010,05,03,00,52,9.10
2010,05,03,00,53,9.10
2010,05,03,00,54,7.70
2010,05,03,00,55,9.70
2010,05,03,00,56,10.70
2010,05,03,00,57,13.20
2010,05,03,00,58,9.70
2010,05,03,00,59,8.20
2010,05,03,01,00,9.30
2010,05,03,01,01,10.00
2010,05,03,01,02,9.70
2010,05,03,01,03,11.20
2010,05,03,01,04,10.20
2010,05,03,01,05,8.00
2010,05,03,01,06,9.70
2010,05,03,01,07,10.40
2010,05,03,01,08,6.70
2010,05,03,01,09,10.50
2010,05,03,01,10,15.80
2010,05,03,01,11,8.90
2010,05,03,01,12,9.00
2010,05,03,01,13,6.20
2010,05,03,01,14,11.50
2010,05,03,01,15,10.30
2010,05,03,01,16,12.30
2010,05,03,01,17,9.40
2010,05,03,01,18,8.50
2010,05,03,01,19,4.70
2010,05,03,01,20,5.70
2010,05,03,01,21,5.10
2010,05,03,01,22,3.20
2010,05,03,01,23,3.10
2010,05,03,01,24,6.40
2010,05,03,01,25,6.20
2010,05,03,01,26,8.10
2010,05,03,01,27,8.70
2010,05,03,01,28,7.00
2010,05,03,01,29,11.70
2010,05,03,01,30,10.00
2010,05,03,01,31,11.80
2010,05,03,01,32,19.50
2010,05,03,01,33,15.50
2010,05,03,01,34,13.30
2010,05,03,01,35,15.20
2010,05,03,01,36,18.90
2010,05,03,01,37,23.10
2010,05,03,01,38,19.40
2010,05,03,01,39,16.80
2010,05,03,01,40,11.80
2010,05,03,01,41,13.90
2010,05,03,01,42,14.60
2010,05,03,01,43,14.40
2010,05,03,01,44,15.20
2010,05,03,01,45,17.20
2010,05,03,01,46,8.70
2010,05,03,01,47,15.00
2010,05,03,01,48,10.20
2010,05,03,01,49,11.00
2010,05,03,01,50,12.10
2010,05,03,01,51,12.60
2010,05,03,01,52,19.80
2010,05,03,01,53,12.90
2010,05,03,01,54,7.70
2010,05,03,01,55,6.60
2010,05,03,01,56,6.70
2010,05,03,01,57,9.60
2010,05,03,01,58,16.90
2010,05,03,01,59,18.60
2010,05,03,02,00,13.40
2010,05,03,02,01,20.70
2010,05,03,02,02,17.10
2010,05,03,02,03,18.10
2010,05,03,02,04,13.00
2010,05,03,02,05,10.00
2010,05,03,02,06,14.50
2010,05,03,02,07,15.50
2010,05,03,02,08,15.50
2010,05,03,02,09,15.90
2010,05,03,02,10,17.80
2010,05,03,02,11,14.10
2010,05,03,02,12,8.40
2010,05,03,02,13,7.20
2010,05,03,02,14,12.20
2010,05,03,02,15,13.60
2010,05,03,02,16,13.60
2010,05,03,02,17,7.80
2010,05,03,02,18,9.50
2010,05,03,02,19,12.20
2010,05,03,02,20,9.90
2010,05,03,02,21,16.90
2010,05,03,02,22,14.80
2010,05,03,02,23,9.10
2010,05,03,02,24,8.60
2010,05,03,02,25,6.90
2010,05,03,02,26,9.70
2010,05,03,02,27,12.50
2010,05,03,02,28,10.10
2010,05,03,02,29,17.80
2010,05,03,02,30,11.60
2010,05,03,02,31,13.40
2010,05,03,02,32,14.10
2010,05,03,02,33,14.60
2010,05,03,02,34,13.40
2010,05,03,02,35,15.90
2010,05,03,02,36,14.70
2010,05,03,02,37,15.10
2010,05,03,02,38,15.30
2010,05,03,02,39,18.40
2010,05,03,02,40,15.10
2010,05,03,02,41,18.90
2010,05,03,02,42,22.90
2010,05,03,02,43,23.80
2010,05,03,02,44,26.50
2010,05,03,02,45,19.80
2010,05,03,02,46,24.30
2010,05,03,02,47,18.30
2010,05,03,02,48,17.10
2010,05,03,02,49,18.10
2010,05,03,02,50,19.80
2010,05,03,02,51,17.60
2010,05,03,02,52,15.40
2010,05,03,02,53,19.70
2010,05,03,02,54,14.60
2010,05,03,02,55,15.30
2010,05,03,02,56,16.70
2010,05,03,02,57,15.10
2010,05,03,02,58,21.20
2010,05,03,02,59,16.50
2010,05,03,03,00,18.00
2010,05,03,03,01,20.00
2010,05,03,03,02,18.90
2010,05,03,03,03,16.10
2010,05,03,03,04,18.80
2010,05,03,03,05,19.70
2010,05,03,03,06,15.40
2010,05,03,03,07,17.10
2010,05,03,03,08,15.70
2010,05,03,03,09,14.30
2010,05,03,03,10,16.60
2010,05,03,03,11,11.50
2010,05,03,03,12,13.10
2010,05,03,03,13,18.00
2010,05,03,03,14,13.30
2010,05,03,03,15,13.00
2010,05,03,03,16,16.20
2010,05,03,03,17,12.80
2010,05,03,03,18,10.90
2010,05,03,03,19,12.10
2010,05,03,03,20,12.90
2010,05,03,03,21,7.00
2010,05,03,03,22,6.60
2010,05,03,03,23,9.90
2010,05,03,03,24,9.90
2010,05,03,03,25,9.50
2010,05,03,03,26,12.60
2010,05,03,03,27,12.80
2010,05,03,03,28,16.10
2010,05,03,03,29,17.40
2010,05,03,03,30,17.30
2010,05,03,03,31,17.20
2010,05,03,03,32,12.50
2010,05,03,03,33,13.30
2010,05,03,03,34,16.30
2010,05,03,03,35,17.30
2010,05,03,03,36,14.60
2010,05,03,03,37,17.10
2010,05,03,03,38,14.30
2010,05,03,03,39,12.60
2010,05,03,03,40,14.10
2010,05,03,03,41,14.10
2010,05,03,03,42,14.60
2010,05,03,03,43,13.60
2010,05,03,03,44,7.20
2010,05,03,03,45,7.50
2010,05,03,03,46,5.60
2010,05,03,03,47,6.10
2010,05,03,03,48,10.80
2010,05,03,03,49,11.70
2010,05,03,03,50,10.90
2010,05,03,03,51,12.00
2010,05,03,03,52,11.70
2010,05,03,03,53,10.80
2010,05,03,03,54,11.30
2010,05,03,03,55,12.10
2010,05,03,03,56,14.00
2010,05,03,03,57,13.20
2010,05,03,03,58,14.50
2010,05,03,03,59,13.50
2010,05,03,04,00,11.40
2010,05,03,04,01,12.50
2010,05,03,04,02,13.50
2010,05,03,04,03,13.80
2010,05,03,04,04,14.10
2010,05,03,04,05,9.10
2010,05,03,04,06,7.20
2010,05,03,04,07,10.00
2010,05,03,04,08,9.00
2010,05,03,04,09,13.30
2010,05,03,04,10,12.90
2010,05,03,04,11,12.40
2010,05,03,04,12,13.60
2010,05,03,04,13,15.60
2010,05,03,04,14,17.00
2010,05,03,04,15,13.30
2010,05,03,04,16,20.20
2010,05,03,04,17,18.60
2010,05,03,04,18,16.90
2010,05,03,04,19,16.10
2010,05,03,04,20,15.50
2010,05,03,04,21,14.90
2010,05,03,04,22,13.90
2010,05,03,04,23,16.80
2010,05,03,04,24,19.50
2010,05,03,04,25,17.20
2010,05,03,04,26,17.10
2010,05,03,04,27,13.30
2010,05,03,04,28,16.10
2010,05,03,04,29,11.90
2010,05,03,04,30,14.40
2010,05,03,04,31,8.80
2010,05,03,04,32,10.60
2010,05,03,04,33,15.20
2010,05,03,04,34,9.70
2010,05,03,04,35,15.00
2010,05,03,04,36,13.90
2010,05,03,04,37,15.50
2010,05,03,04,38,14.10
2010,05,03,04,39,10.90
2010,05,03,04,40,12.50
2010,05,03,04,41,8.50
2010,05,03,04,42,6.40
2010,05,03,04,43,8.20
2010,05,03,04,44,9.70
2010,05,03,04,45,9.50
2010,05,03,04,46,9.00
2010,05,03,04,47,14.70
2010,05,03,04,48,15.20
2010,05,03,04,49,12.70
2010,05,03,04,50,11.40
2010,05,03,04,51,13.20
2010,05,03,04,52,13.40
2010,05,03,04,53,12.00
2010,05,03,04,54,16.00
2010,05,03,04,55,12.10
2010,05,03,04,56,11.80
2010,05,03,04,57,13.70
2010,05,03,04,58,17.50
2010,05,03,04,59,15.40
2010,05,03,05,00,16.30
2010,05,03,05,01,16.30
2010,05,03,05,02,14.10
2010,05,03,05,03,15.60
2010,05,03,05,04,18.60
2010,05,03,05,05,19.20
2010,05,03,05,06,13.80
2010,05,03,05,07,14.90
2010,05,03,05,08,17.50
2010,05,03,05,09,14.40
2010,05,03,05,10,16.70
2010,05,03,05,11,14.30
2010,05,03,05,12,18.00
2010,05,03,05,13,15.80
2010,05,03,05,14,16.20
2010,05,03,05,15,17.40
2010,05,03,05,16,19.10
2010,05,03,05,17,18.60
2010,05,03,05,18,17.30
2010,05,03,05,19,18.80
2010,05,03,05,20,19.10
2010,05,03,05,21,18.20
2010,05,03,05,22,19.10
2010,05,03,05,23,20.40
2010,05,03,05,24,18.70
2010,05,03,05,25,16.00
2010,05,03,05,26,16.20
2010,05,03,05,27,17.60
2010,05,03,05,28,22.40
2010,05,03,05,29,19.40
2010,05,03,05,30,24.60
2010,05,03,05,31,20.40
2010,05,03,05,32,25.60
2010,05,03,05,33,24.70
2010,05,03,05,34,23.60
2010,05,03,05,35,24.60
2010,05,03,05,36,22.20
2010,05,03,05,37,25.50
2010,05,03,05,38,23.20
2010,05,03,05,39,22.00
2010,05,03,05,40,28.10
2010,05,03,05,41,24.80
2010,05,03,05,42,25.70
2010,05,03,05,43,27.20
2010,05,03,05,44,23.60
2010,05,03,05,45,29.00
2010,05,03,05,46,27.50
2010,05,03,05,47,27.80
2010,05,03,05,48,24.10
2010,05,03,05,49,25.20
2010,05,03,05,50,23.10
2010,05,03,05,51,22.70
2010,05,03,05,52,23.40
2010,05,03,05,53,23.60
2010,05,03,05,54,24.80
2010,05,03,05,55,25.50
2010,05,03,05,56,24.40
2010,05,03,05,57,22.40
2010,05,03,05,58,23.00
2010,05,03,05,59,23.00
2010,05,03,06,00,22.90
2010,05,03,06,01,22.40
2010,05,03,06,02,23.50
2010,05,03,06,03,20.90
2010,05,03,06,04,27.50
2010,05,03,06,05,28.90
2010,05,03,06,06,28.90
2010,05,03,06,07,26.70
2010,05,03,06,08,25.40
2010,05,03,06,09,24.80
2010,05,03,06,10,25.10
2010,05,03,06,11,25.60
2010,05,03,06,12,23.40
2010,05,03,06,13,24.10
2010,05,03,06,14,26.40
2010,05,03,06,15,23.90
2010,05,03,06,16,23.00
2010,05,03,06,17,23.20
2010,05,03,06,18,14.30
2010,05,03,06,19,15.20
2010,05,03,06,20,18.40
2010,05,03,06,21,21.30
2010,05,03,06,22,22.50
2010,05,03,06,23,18.80
2010,05,03,06,24,23.50
2010,05,03,06,25,15.80
2010,05,03,06,26,19.50
2010,05,03,06,27,17.60
2010,05,03,06,28,17.00
2010,05,03,06,29,11.80
2010,05,03,06,30,12.20
2010,05,03,06,31,16.90
2010,05,03,06,32,13.00
2010,05,03,06,33,17.90
2010,05,03,06,34,17.10
2010,05,03,06,35,14.70
2010,05,03,06,36,12.10
2010,05,03,06,37,18.50
2010,05,03,06,38,16.50
2010,05,03,06,39,17.80
2010,05,03,06,40,16.40
2010,05,03,06,41,15.30
2010,05,03,06,42,15.60
2010,05,03,06,43,11.20
2010,05,03,06,44,15.60
2010,05,03,06,45,16.30
2010,05,03,06,46,19.00
2010,05,03,06,47,16.50
2010,05,03,06,48,16.20
2010,05,03,06,49,17.60
2010,05,03,06,50,14.30
2010,05,03,06,51,14.70
2010,05,03,06,52,18.00
2010,05,03,06,53,19.10
2010,05,03,06,54,18.30
2010,05,03,06,55,19.00
2010,05,03,06,56,18.10
2010,05,03,06,57,18.10
2010,05,03,06,58,19.80
2010,05,03,06,59,19.90
2010,05,03,07,00,19.90
2010,05,03,07,01,15.70
2010,05,03,07,02,16.40
2010,05,03,07,03,16.60
2010,05,03,07,04,19.10
2010,05,03,07,05,18.20
2010,05,03,07,06,20.00
2010,05,03,07,07,17.90
2010,05,03,07,08,18.40
2010,05,03,07,09,16.70
2010,05,03,07,10,16.70
2010,05,03,07,11,17.10
2010,05,03,07,12,19.20
2010,05,03,07,13,21.40
2010,05,03,07,14,20.30
2010,05,03,07,15,17.60
2010,05,03,07,16,18.50
2010,05,03,07,17,22.60
2010,05,03,07,18,23.50
2010,05,03,07,19,17.70
2010,05,03,07,20,17.70
2010,05,03,07,21,17.70
2010,05,03,07,22,17.70
2010,05,03,07,23,17.70
2010,05,03,07,24,17.90
2010,05,03,07,25,19.70
2010,05,03,07,26,15.20
2010,05,03,07,27,17.60
2010,05,03,07,28,15.30
2010,05,03,07,29,12.40
2010,05,03,07,30,12.90
2010,05,03,07,31,16.10
2010,05,03,07,32,13.70
2010,05,03,07,33,19.00
2010,05,03,07,34,17.20
2010,05,03,07,35,13.00
2010,05,03,07,36,16.40
2010,05,03,07,37,19.60
2010,05,03,07,38,20.10
2010,05,03,07,39,17.10
2010,05,03,07,40,12.40
2010,05,03,07,41,16.90
2010,05,03,07,42,19.60
2010,05,03,07,43,17.20
2010,05,03,07,44,15.10
2010,05,03,07,45,9.20
2010,05,03,07,46,11.30
2010,05,03,07,47,14.10
2010,05,03,07,48,12.70
2010,05,03,07,49,14.40
2010,05,03,07,50,13.70
2010,05,03,07,51,16.20
2010,05,03,07,52,14.90
2010,05,03,07,53,14.30
2010,05,03,07,54,19.40
2010,05,03,07,55,8.10
2010,05,03,07,56,12.00
2010,05,03,07,57,7.10
2010,05,03,07,58,13.70
2010,05,03,07,59,9.80
2010,05,03,08,00,17.60
2010,05,03,08,01,16.00
2010,05,03,08,02,15.30
2010,05,03,08,03,11.40
2010,05,03,08,04,18.40
2010,05,03,08,05,17.30
2010,05,03,08,06,14.60
2010,05,03,08,07,16.80
2010,05,03,08,08,13.20
2010,05,03,08,09,22.90
2010,05,03,08,10,22.30
2010,05,03,08,11,17.90
2010,05,03,08,12,15.70
2010,05,03,08,13,21.70
2010,05,03,08,14,17.90
2010,05,03,08,15,19.50
2010,05,03,08,16,15.10
2010,05,03,08,17,15.30
2010,05,03,08,18,16.90
2010,05,03,08,19,16.30
2010,05,03,08,20,14.80
2010,05,03,08,21,18.10
2010,05,03,08,22,20.30
2010,05,03,08,23,17.20
2010,05,03,08,24,14.30
2010,05,03,08,25,18.90
2010,05,03,08,26,15.60
2010,05,03,08,27,19.60
2010,05,03,08,28,19.20
2010,05,03,08,29,18.30
2010,05,03,08,30,13.50
2010,05,03,08,31,11.20
2010,05,03,08,32,16.70
2010,05,03,08,33,16.90
2010,05,03,08,34,16.90
2010,05,03,08,35,18.80
2010,05,03,08,36,16.40
2010,05,03,08,37,20.70
2010,05,03,08,38,19.10
2010,05,03,08,39,20.20
2010,05,03,08,40,10.80
2010,05,03,08,41,9.70
2010,05,03,08,42,10.00
2010,05,03,08,43,12.40
2010,05,03,08,44,8.70
2010,05,03,08,45,10.50
2010,05,03,08,46,13.70
2010,05,03,08,47,11.40
2010,05,03,08,48,9.30
2010,05,03,08,49,7.90
2010,05,03,08,50,8.70
2010,05,03,08,51,20.20
2010,05,03,08,52,11.10
2010,05,03,08,53,4.10
2010,05,03,08,54,13.40
2010,05,03,08,55,6.60
2010,05,03,08,56,4.10
2010,05,03,08,57,6.40
2010,05,03,08,58,7.80
2010,05,03,08,59,5.40
2010,05,03,09,00,6.50
2010,05,03,09,01,7.70
2010,05,03,09,02,3.40
2010,05,03,09,03,7.10
2010,05,03,09,04,10.10
2010,05,03,09,05,8.00
2010,05,03,09,06,5.60
2010,05,03,09,07,8.70
2010,05,03,09,08,13.10
2010,05,03,09,09,13.30
2010,05,03,09,10,16.70
2010,05,03,09,11,10.10
2010,05,03,09,12,11.30
2010,05,03,09,13,6.30
2010,05,03,09,14,9.90
2010,05,03,09,15,13.90
2010,05,03,09,16,10.50
2010,05,03,09,17,6.80
2010,05,03,09,18,7.40
2010,05,03,09,19,9.60
2010,05,03,09,20,7.00
2010,05,03,09,21,14.00
2010,05,03,09,22,7.20
2010,05,03,09,23,7.90
2010,05,03,09,24,8.20
2010,05,03,09,25,14.00
2010,05,03,09,26,14.80
2010,05,03,09,27,13.00
2010,05,03,09,28,20.00
2010,05,03,09,29,12.60
2010,05,03,09,30,11.30
2010,05,03,09,31,9.00
2010,05,03,09,32,9.80
2010,05,03,09,33,12.10
2010,05,03,09,34,9.40
2010,05,03,09,35,7.60
2010,05,03,09,36,13.10
2010,05,03,09,37,15.70
2010,05,03,09,38,9.30
2010,05,03,09,39,14.10
2010,05,03,09,40,10.70
2010,05,03,09,41,16.10
2010,05,03,09,42,14.70
2010,05,03,09,43,17.40
2010,05,03,09,44,7.70
2010,05,03,09,45,9.10
2010,05,03,09,46,15.00
2010,05,03,09,47,11.80
2010,05,03,09,48,11.10
2010,05,03,09,49,6.60
2010,05,03,09,50,8.60
2010,05,03,09,51,12.40
2010,05,03,09,52,16.40
2010,05,03,09,53,13.00
2010,05,03,09,54,10.90
2010,05,03,09,55,8.80
2010,05,03,09,56,13.90
2010,05,03,09,57,13.30
2010,05,03,09,58,14.40
2010,05,03,09,59,9.50
2010,05,03,10,00,8.70
2010,05,03,10,01,11.60
2010,05,03,10,02,14.70
2010,05,03,10,03,18.10
2010,05,03,10,04,17.60
2010,05,03,10,05,14.60
2010,05,03,10,06,14.00
2010,05,03,10,07,9.50
2010,05,03,10,08,10.40
2010,05,03,10,09,20.90
2010,05,03,10,10,13.90
2010,05,03,10,11,12.10
2010,05,03,10,12,12.50
2010,05,03,10,13,9.60
2010,05,03,10,14,14.30
2010,05,03,10,15,22.80
2010,05,03,10,16,17.50
2010,05,03,10,17,11.30
2010,05,03,10,18,10.80
2010,05,03,10,19,16.00
2010,05,03,10,20,18.70
2010,05,03,10,21,20.00
2010,05,03,10,22,12.80
2010,05,03,10,23,17.30
2010,05,03,10,24,18.00
2010,05,03,10,25,16.60
2010,05,03,10,26,16.90
2010,05,03,10,27,17.50
2010,05,03,10,28,15.60
2010,05,03,10,29,16.10
2010,05,03,10,30,17.60
2010,05,03,10,31,19.10
2010,05,03,10,32,16.20
2010,05,03,10,33,16.30
2010,05,03,10,34,10.00
2010,05,03,10,35,13.40
2010,05,03,10,36,14.80
2010,05,03,10,37,13.40
2010,05,03,10,38,11.40
2010,05,03,10,39,9.90
2010,05,03,10,40,9.40
2010,05,03,10,41,9.10
2010,05,03,10,42,13.30
2010,05,03,10,43,14.50
2010,05,03,10,44,9.70
2010,05,03,10,45,10.60
2010,05,03,10,46,9.50
2010,05,03,10,47,13.10
2010,05,03,10,48,8.80
2010,05,03,10,49,6.90
2010,05,03,10,50,12.90
2010,05,03,10,51,9.90
2010,05,03,10,52,7.50
2010,05,03,10,53,11.20
2010,05,03,10,54,13.00
2010,05,03,10,55,12.80
2010,05,03,10,56,11.70
2010,05,03,10,57,7.60
2010,05,03,10,58,12.50
2010,05,03,10,59,10.80
2010,05,03,11,00,12.80
2010,05,03,11,01,18.50
2010,05,03,11,02,13.30
2010,05,03,11,03,11.20
2010,05,03,11,04,13.50
2010,05,03,11,05,15.20
2010,05,03,11,06,14.10
2010,05,03,11,07,11.80
2010,05,03,11,08,15.70
2010,05,03,11,09,8.70
2010,05,03,11,10,9.40
2010,05,03,11,11,13.60
2010,05,03,11,12,21.30
2010,05,03,11,13,18.90
2010,05,03,11,14,15.60
2010,05,03,11,15,23.70
2010,05,03,11,16,16.50
2010,05,03,11,17,15.40
2010,05,03,11,18,10.10
2010,05,03,11,19,12.60
2010,05,03,11,20,16.10
2010,05,03,11,21,14.90
2010,05,03,11,22,15.70
2010,05,03,11,23,12.00
2010,05,03,11,24,9.20
2010,05,03,11,25,10.80
2010,05,03,11,26,5.60
2010,05,03,11,27,9.50
2010,05,03,11,28,11.70
2010,05,03,11,29,14.30
2010,05,03,11,30,16.50
2010,05,03,11,31,11.90
2010,05,03,11,32,14.70
2010,05,03,11,33,14.20
2010,05,03,11,34,14.10
2010,05,03,11,35,16.90
2010,05,03,11,36,16.90
2010,05,03,11,37,14.70
2010,05,03,11,38,15.20
2010,05,03,11,39,17.90
2010,05,03,11,40,18.50
2010,05,03,11,41,17.50
2010,05,03,11,42,13.40
2010,05,03,11,43,15.40
2010,05,03,11,44,16.00
2010,05,03,11,45,15.00
2010,05,03,11,46,17.40
2010,05,03,11,47,15.60
2010,05,03,11,48,14.30
2010,05,03,11,49,14.50
2010,05,03,11,50,19.50
2010,05,03,11,51,17.40
2010,05,03,11,52,17.30
2010,05,03,11,53,22.70
2010,05,03,11,54,18.70
2010,05,03,11,55,17.20
2010,05,03,11,56,13.00
2010,05,03,11,57,14.60
2010,05,03,11,58,12.20
2010,05,03,11,59,15.90
2010,05,03,12,00,14.80
2010,05,03,12,01,20.10
2010,05,03,12,02,20.90
2010,05,03,12,03,18.60
2010,05,03,12,04,18.30
2010,05,03,12,05,16.60
2010,05,03,12,06,17.60
2010,05,03,12,07,18.50
2010,05,03,12,08,14.90
2010,05,03,12,09,20.90
2010,05,03,12,10,18.30
2010,05,03,12,11,15.80
2010,05,03,12,12,12.80
2010,05,03,12,13,13.30
2010,05,03,12,14,14.90
2010,05,03,12,15,16.60
2010,05,03,12,16,12.50
2010,05,03,12,17,14.70
2010,05,03,12,18,13.20
2010,05,03,12,19,14.20
2010,05,03,12,20,14.50
2010,05,03,12,21,14.00
2010,05,03,12,22,12.60
2010,05,03,12,23,13.00
2010,05,03,12,24,14.20
2010,05,03,12,25,12.20
2010,05,03,12,26,17.20
2010,05,03,12,27,14.50
2010,05,03,12,28,16.00
2010,05,03,12,29,20.40
2010,05,03,12,30,21.60
2010,05,03,12,31,18.90
2010,05,03,12,32,17.40
2010,05,03,12,33,21.40
2010,05,03,12,34,19.00
2010,05,03,12,35,19.70
2010,05,03,12,36,17.60
2010,05,03,12,37,13.90
2010,05,03,12,38,17.10
2010,05,03,12,39,17.40
2010,05,03,12,40,18.70
2010,05,03,12,41,14.70
2010,05,03,12,42,20.00
2010,05,03,12,43,22.20
2010,05,03,12,44,23.40
2010,05,03,12,45,17.40
2010,05,03,12,46,19.80
2010,05,03,12,47,16.00
2010,05,03,12,48,18.30
2010,05,03,12,49,15.40
2010,05,03,12,50,17.20
2010,05,03,12,51,18.40
2010,05,03,12,52,14.80
2010,05,03,12,53,19.30
2010,05,03,12,54,14.00
2010,05,03,12,55,14.70
2010,05,03,12,56,17.30
2010,05,03,12,57,15.00
2010,05,03,12,58,18.20
2010,05,03,12,59,21.00
2010,05,03,13,00,15.50
2010,05,03,13,01,17.30
2010,05,03,13,02,18.90
2010,05,03,13,03,18.30
2010,05,03,13,04,14.10
2010,05,03,13,05,20.20
2010,05,03,13,06,14.20
2010,05,03,13,07,13.10
2010,05,03,13,08,19.00
2010,05,03,13,09,20.90
2010,05,03,13,10,15.70
2010,05,03,13,11,14.90
2010,05,03,13,12,17.00
2010,05,03,13,13,19.60
2010,05,03,13,14,18.20
2010,05,03,13,15,18.90
2010,05,03,13,16,14.20
2010,05,03,13,17,15.00
2010,05,03,13,18,9.60
2010,05,03,13,19,11.00
2010,05,03,13,20,16.10
2010,05,03,13,21,21.10
2010,05,03,13,22,16.00
2010,05,03,13,23,17.90
2010,05,03,13,24,20.30
2010,05,03,13,25,22.10
2010,05,03,13,26,28.00
2010,05,03,13,27,18.50
2010,05,03,13,28,20.60
2010,05,03,13,29,17.60
2010,05,03,13,30,16.50
2010,05,03,13,31,20.80
2010,05,03,13,32,16.30
2010,05,03,13,33,17.70
2010,05,03,13,34,18.10
2010,05,03,13,35,21.30
2010,05,03,13,36,21.50
2010,05,03,13,37,21.30
2010,05,03,13,38,20.70
2010,05,03,13,39,21.90
2010,05,03,13,40,20.00
2010,05,03,13,41,19.80
2010,05,03,13,42,19.00
2010,05,03,13,43,21.50
2010,05,03,13,44,18.70
2010,05,03,13,45,20.70
2010,05,03,13,46,19.80
2010,05,03,13,47,18.30
2010,05,03,13,48,18.70
2010,05,03,13,49,20.60
2010,05,03,13,50,21.20
2010,05,03,13,51,17.00
2010,05,03,13,52,18.00
2010,05,03,13,53,18.00
2010,05,03,13,54,23.70
2010,05,03,13,55,17.20
2010,05,03,13,56,18.20
2010,05,03,13,57,19.40
2010,05,03,13,58,19.30
2010,05,03,13,59,18.60
2010,05,03,14,00,18.10
2010,05,03,14,01,16.90
2010,05,03,14,02,20.30
2010,05,03,14,03,18.40
2010,05,03,14,04,17.40
2010,05,03,14,05,19.30
2010,05,03,14,06,20.50
2010,05,03,14,07,16.40
2010,05,03,14,08,16.30
2010,05,03,14,09,20.20
2010,05,03,14,10,21.90
2010,05,03,14,11,22.00
2010,05,03,14,12,20.70
2010,05,03,14,13,20.80
2010,05,03,14,14,23.80
2010,05,03,14,15,18.10
2010,05,03,14,16,22.00
2010,05,03,14,17,18.60
2010,05,03,14,18,17.90
2010,05,03,14,19,19.50
2010,05,03,14,20,21.20
2010,05,03,14,21,19.20
2010,05,03,14,22,21.80
2010,05,03,14,23,21.10
2010,05,03,14,24,18.60
2010,05,03,14,25,21.10
2010,05,03,14,26,20.30
2010,05,03,14,27,19.40
2010,05,03,14,28,18.40
2010,05,03,14,29,20.10
2010,05,03,14,30,21.40
2010,05,03,14,31,20.80
2010,05,03,14,32,21.20
2010,05,03,14,33,20.40
2010,05,03,14,34,20.60
2010,05,03,14,35,16.70
2010,05,03,14,36,23.30
2010,05,03,14,37,23.50
2010,05,03,14,38,21.60
2010,05,03,14,39,17.30
2010,05,03,14,40,20.30
2010,05,03,14,41,20.30
2010,05,03,14,42,15.30
2010,05,03,14,43,18.10
2010,05,03,14,44,19.20
2010,05,03,14,45,13.20
2010,05,03,14,46,22.80
2010,05,03,14,47,23.00
2010,05,03,14,48,22.40
2010,05,03,14,49,23.80
2010,05,03,14,50,22.90
2010,05,03,14,51,20.80
2010,05,03,14,52,22.20
2010,05,03,14,53,19.90
2010,05,03,14,54,15.00
2010,05,03,14,55,19.30
2010,05,03,14,56,18.60
2010,05,03,14,57,20.80
2010,05,03,14,58,20.20
2010,05,03,14,59,17.30
2010,05,03,15,00,23.70
2010,05,03,15,01,21.20
2010,05,03,15,02,21.60
2010,05,03,15,03,21.60
2010,05,03,15,04,24.10
2010,05,03,15,05,18.00
2010,05,03,15,06,20.20
2010,05,03,15,07,21.80
2010,05,03,15,08,22.20
2010,05,03,15,09,19.80
2010,05,03,15,10,15.60
2010,05,03,15,11,24.10
2010,05,03,15,12,24.10
2010,05,03,15,13,19.10
2010,05,03,15,14,15.90
2010,05,03,15,15,20.40
2010,05,03,15,16,18.60
2010,05,03,15,17,22.20
2010,05,03,15,18,23.70
2010,05,03,15,19,23.30
2010,05,03,15,20,24.70
2010,05,03,15,21,22.00
2010,05,03,15,22,23.20
2010,05,03,15,23,19.80
2010,05,03,15,24,19.10
2010,05,03,15,25,20.00
2010,05,03,15,26,18.90
2010,05,03,15,27,20.30
2010,05,03,15,28,22.80
2010,05,03,15,29,21.70
2010,05,03,15,30,23.10
2010,05,03,15,31,22.30
2010,05,03,15,32,16.60
2010,05,03,15,33,19.30
2010,05,03,15,34,19.00
2010,05,03,15,35,21.20
2010,05,03,15,36,24.20
2010,05,03,15,37,18.20
2010,05,03,15,38,17.20
2010,05,03,15,39,21.20
2010,05,03,15,40,20.10
2010,05,03,15,41,22.20
2010,05,03,15,42,17.50
2010,05,03,15,43,15.10
2010,05,03,15,44,16.50
2010,05,03,15,45,18.40
2010,05,03,15,46,13.90
2010,05,03,15,47,17.80
2010,05,03,15,48,17.60
2010,05,03,15,49,20.50
2010,05,03,15,50,16.00
2010,05,03,15,51,19.10
2010,05,03,15,52,23.80
2010,05,03,15,53,18.00
2010,05,03,15,54,18.50
2010,05,03,15,55,18.10
2010,05,03,15,56,21.60
2010,05,03,15,57,16.90
2010,05,03,15,58,21.60
2010,05,03,15,59,18.40
2010,05,03,16,00,21.10
2010,05,03,16,01,15.10
2010,05,03,16,02,13.20
2010,05,03,16,03,17.40
2010,05,03,16,04,14.90
2010,05,03,16,05,18.60
2010,05,03,16,06,17.10
2010,05,03,16,07,17.80
2010,05,03,16,08,20.90
2010,05,03,16,09,23.00
2010,05,03,16,10,22.70
2010,05,03,16,11,18.10
2010,05,03,16,12,20.20
2010,05,03,16,13,20.50
2010,05,03,16,14,21.10
2010,05,03,16,15,22.70
2010,05,03,16,16,19.20
2010,05,03,16,17,24.60
2010,05,03,16,18,21.90
2010,05,03,16,19,19.60
2010,05,03,16,20,18.60
2010,05,03,16,21,21.90
2010,05,03,16,22,19.40
2010,05,03,16,23,21.90
2010,05,03,16,24,20.50
2010,05,03,16,25,18.60
2010,05,03,16,26,17.10
2010,05,03,16,27,17.70
2010,05,03,16,28,17.90
2010,05,03,16,29,17.40
2010,05,03,16,30,12.90
2010,05,03,16,31,15.90
2010,05,03,16,32,16.80
2010,05,03,16,33,17.80
2010,05,03,16,34,16.00
2010,05,03,16,35,16.20
2010,05,03,16,36,15.50
2010,05,03,16,37,11.90
2010,05,03,16,38,13.00
2010,05,03,16,39,22.30
2010,05,03,16,40,19.50
2010,05,03,16,41,15.60
2010,05,03,16,42,15.60
2010,05,03,16,43,14.70
2010,05,03,16,44,16.70
2010,05,03,16,45,15.10
2010,05,03,16,46,15.60
2010,05,03,16,47,16.50
2010,05,03,16,48,11.30
2010,05,03,16,49,9.40
2010,05,03,16,50,9.70
2010,05,03,16,51,11.30
2010,05,03,16,52,16.30
2010,05,03,16,53,15.80
2010,05,03,16,54,13.60
2010,05,03,16,55,9.80
2010,05,03,16,56,11.50
2010,05,03,16,57,10.80
2010,05,03,16,58,10.00
2010,05,03,16,59,9.70
2010,05,03,17,00,11.40
2010,05,03,17,01,7.60
2010,05,03,17,02,14.00
2010,05,03,17,03,17.00
2010,05,03,17,04,15.20
2010,05,03,17,05,19.10
2010,05,03,17,06,16.70
2010,05,03,17,07,16.70
2010,05,03,17,08,16.90
2010,05,03,17,09,17.20
2010,05,03,17,10,14.50
2010,05,03,17,11,16.40
2010,05,03,17,12,11.90
2010,05,03,17,13,13.70
2010,05,03,17,14,10.10
2010,05,03,17,15,15.20
2010,05,03,17,16,14.00
2010,05,03,17,17,15.70
2010,05,03,17,18,12.40
2010,05,03,17,19,10.00
2010,05,03,17,20,11.70
2010,05,03,17,21,14.70
2010,05,03,17,22,9.80
2010,05,03,17,23,8.30
2010,05,03,17,24,12.40
2010,05,03,17,25,19.80
2010,05,03,17,26,9.70